KE6AFE Weather Reports


time (UTC)temp
F
wind
direction
speed
knots
gust
knots
rain 1hr
in
rain 24hr
in
rain mn
in
humidity
%
barometer
mb
20260505093450 56 2 0.0 0.0 0.00 0.00 0.00 64 1015.2
20260505092440 56 2 0.0 0.0 0.00 0.00 0.00 65 1015.3
20260505091430 56 2 0.0 0.0 0.00 0.00 0.00 65 1015.4
20260505090420 56 2 0.0 0.0 0.00 0.00 0.00 65 1015.6
20260505085410 56 2 0.0 0.0 0.00 0.00 0.00 66 1015.6
20260505084400 56 2 0.0 0.0 0.00 0.00 0.00 66 1015.5
20260505083350 56 2 0.0 0.0 0.00 0.00 0.00 66 1015.6
20260505082340 56 2 0.0 0.0 0.00 0.00 0.00 65 1015.7
20260505081330 56 2 0.0 0.0 0.00 0.00 0.00 65 1015.8
20260505080320 56 2 0.0 0.0 0.00 0.00 0.00 65 1015.9
20260505075310 56 2 0.0 0.0 0.00 0.00 0.00 65 1015.9
20260505074300 56 2 0.0 0.0 0.00 0.00 0.00 64 1015.9
20260505073251 57 2 0.0 0.0 0.00 0.00 0.00 64 1015.8
20260505072240 57 2 0.0 0.0 0.00 0.00 0.00 64 1015.7
20260505071230 57 2 0.0 0.0 0.00 0.00 0.00 63 1015.7
20260505070220 57 2 0.0 0.0 0.00 0.00 0.00 63 1015.8
20260505065210 57 2 0.0 0.0 0.00 0.00 0.00 63 1015.7
20260505064200 57 2 0.0 0.0 0.00 0.00 0.00 62 1015.6
20260505063150 58 3 0.0 0.0 0.00 0.00 0.00 62 1015.6
20260505062140 58 2 0.0 0.0 0.00 0.00 0.00 61 1015.6
20260505061130 58 2 0.0 0.0 0.00 0.00 0.00 61 1015.7
20260505060120 58 2 0.0 0.0 0.00 0.00 0.00 61 1015.7
20260505055110 58 2 0.0 0.0 0.00 0.00 0.00 60 1015.8
20260505054100 58 2 0.0 0.0 0.00 0.00 0.00 58 1015.9
20260505053050 58 3 0.0 0.0 0.00 0.00 0.00 58 1016.0
20260505052040 59 2 0.0 0.0 0.00 0.00 0.00 58 1016.1
20260505051030 59 2 0.0 0.0 0.00 0.00 0.00 57 1016.1
20260505040930 60 1 0.0 0.0 0.00 0.00 0.00 58 1015.6
20260505035920 60 1 0.0 0.0 0.00 0.00 0.00 57 1015.4
20260505034910 60 1 0.0 0.0 0.00 0.00 0.00 57 1015.4
20260505033900 61 1 0.0 0.0 0.00 0.00 0.00 56 1015.2
20260505032850 61 1 0.0 0.0 0.00 0.00 0.00 57 1015.2
20260505031840 61 1 0.0 0.0 0.00 0.00 0.00 57 1015.3
20260505030830 61 1 0.0 0.0 0.00 0.00 0.00 56 1015.4
20260505025820 62 1 0.0 0.0 0.00 0.00 0.00 55 1015.4
20260505024810 62 1 0.0 0.0 0.00 0.00 0.00 53 1015.4
20260505023800 62 1 0.0 0.0 0.00 0.00 0.00 53 1015.4
20260505022750 63 1 0.0 0.0 0.00 0.00 0.00 53 1015.3
20260505021740 63 1 0.0 0.0 0.00 0.00 0.00 52 1015.4
20260505020730 64 1 0.0 0.0 0.00 0.00 0.00 51 1015.3
20260505015720 64 1 0.0 0.0 0.00 0.00 0.00 51 1015.4
20260505014710 64 1 0.0 0.0 0.00 0.00 0.00 51 1015.4
20260505013700 65 1 0.0 0.0 0.00 0.00 0.00 49 1015.6
20260505012650 65 1 0.0 0.0 0.00 0.00 0.00 49 1015.7
20260505011640 65 1 0.0 0.0 0.00 0.00 0.00 48 1015.7
20260505010630 66 1 0.0 0.0 0.00 0.00 0.00 47 1015.9
20260505005620 66 1 0.0 0.0 0.00 0.00 0.00 45 1016.0
20260505004610 67 1 0.0 0.0 0.00 0.00 0.00 45 1016.1
20260505003600 68 1 0.0 0.0 0.00 0.00 0.00 44 1016.0
20260505002550 69 1 0.0 0.0 0.00 0.00 0.00 45 1016.1
20260505001540 69 1 0.0 0.0 0.00 0.00 0.00 44 1016.0
20260505000530 69 1 0.0 0.0 0.00 0.00 0.00 45 1015.9
20260504235520 70 1 0.0 0.0 0.00 0.00 0.00 45 1015.8
20260504234510 70 1 0.0 0.0 0.00 0.00 0.00 45 1015.9
20260504233500 70 2 0.0 0.0 0.00 0.00 0.00 42 1015.9
20260504232450 70 1 0.0 0.0 0.00 0.00 0.00 44 1016.0
20260504231440 70 1 0.0 0.0 0.00 0.00 0.00 46 1016.0
20260504230430 70 1 0.0 0.0 0.00 0.00 0.00 46 1016.0
20260504225420 70 1 0.0 0.0 0.00 0.00 0.00 47 1016.0
20260504224410 71 1 0.0 0.0 0.00 0.00 0.00 46 1016.1
20260504223400 71 2 0.0 0.0 0.00 0.00 0.00 47 1016.2
20260504222350 71 1 0.0 0.0 0.00 0.00 0.00 46 1016.1
20260504221340 71 1 0.0 0.0 0.00 0.00 0.00 46 1016.3
20260504220330 71 1 0.0 0.0 0.00 0.00 0.00 46 1016.3
20260504215320 71 1 0.0 0.0 0.00 0.00 0.00 47 1016.5
20260504214310 71 1 0.0 0.0 0.00 0.00 0.00 48 1016.4
20260504213300 70 1 0.0 0.0 0.00 0.00 0.00 48 1016.5
20260504212249 70 1 0.0 0.0 0.00 0.00 0.00 48 1016.7
20260504211240 70 1 0.0 0.0 0.00 0.00 0.00 49 1016.7
20260504210229 70 1 0.0 0.0 0.00 0.00 0.00 51 1016.8
20260504205220 70 1 0.0 0.0 0.00 0.00 0.00 52 1016.7
20260504204210 69 2 0.0 0.0 0.00 0.00 0.00 52 1016.7
20260504203158 69 1 0.0 0.0 0.00 0.00 0.00 53 1016.7
20260504202148 69 1 0.0 0.0 0.00 0.00 0.00 53 1016.7
20260504201138 68 1 0.0 0.0 0.00 0.00 0.00 54 1016.8
20260504200128 68 1 0.0 0.0 0.00 0.00 0.00 53 1016.8
20260504195118 68 1 0.0 0.0 0.00 0.00 0.00 53 1016.7
20260504194108 68 1 0.0 0.0 0.00 0.00 0.00 55 1016.7
20260504193058 68 1 0.0 0.0 0.00 0.00 0.00 55 1016.7
20260504192048 68 1 0.0 0.0 0.00 0.00 0.00 55 1016.6
20260504191038 67 1 0.0 0.0 0.00 0.00 0.00 57 1016.7
20260504190028 67 1 0.0 0.0 0.00 0.00 0.00 58 1016.6
20260504185018 66 1 0.0 0.0 0.00 0.00 0.00 58 1016.7
20260504184008 65 1 0.0 0.0 0.00 0.00 0.00 59 1016.6
20260504182958 65 1 0.0 0.0 0.00 0.00 0.00 60 1016.5
20260504181948 64 1 0.0 0.0 0.00 0.00 0.00 62 1016.5
20260504180938 63 1 0.0 0.0 0.00 0.00 0.00 63 1016.4
20260504175929 63 1 0.0 0.0 0.00 0.00 0.00 63 1016.4
20260504174918 62 1 0.0 0.0 0.00 0.00 0.00 64 1016.1
20260504173908 62 1 0.0 0.0 0.00 0.00 0.00 66 1016.0
20260504172858 61 1 0.0 0.0 0.00 0.00 0.00 66 1015.9
20260504171848 61 1 0.0 0.0 0.00 0.00 0.00 66 1015.9
20260504170838 61 1 0.0 0.0 0.00 0.00 0.00 67 1015.8
20260504150638 53 2 0.0 0.0 0.00 0.01 0.00 73 1015.6
20260504140538 48 2 0.0 0.0 0.00 0.01 0.00 79 1015.5
20260504130438 48 2 0.0 0.0 0.00 0.01 0.00 78 1015.0
20260504110238 48 2 0.0 0.0 0.00 0.01 0.00 78 1015.0
20260504100138 48 2 0.0 0.0 0.00 0.01 0.00 76 1014.9